User: anonymous   Login
Location: Unspecified
(0.0000°N, 0.0000°E)
Time: 00:06:56
(UTC+00:00)
Language:

STARLINK-32750 - Orbit

View from above orbital plane
View from above orbital plane
View from above satellite
View from above satellite

Ground track
Ground track

The orbit is defined by the following mean orbital elements,

1 62572U          26145.49572247 +.00000000 +00000-0 +49573-3 0 00004
2 62572  42.9989 218.4173 0001023 271.4595  88.6139 15.27592544    09
Epoch (UTC): 25 May 2026 11:53:50
Eccentricity: 0.0001023
inclination: 42.9989°
perigee height: 482 km
apogee height: 484 km
right ascension of ascending node: 218.4173°
argument of perigee: 271.4595°
revolutions per day: 15.27592544
mean anomaly at epoch: 88.6139°

The dashed part of the orbit path shows where the satellite is in the earth's shadow,  

DLR